Tracking 20719 objects as of 26-May-2020
HD Live streaming from Space Station
objects crossing your sky now

BS-3B (YURI 3B)

Track BS-3B (YURI 3B) now!
BS-3B (YURI 3B) is classified as:


NORAD ID: 21668
Int'l Code: 1991-060A
Perigee: 36,184.4 km
Apogee: 36,242.2 km
Inclination: 13.4 °
Period: 1,457.6 minutes
Semi major axis: 42584 km
RCS: 1.6 m2 (large)
Launch date: August 25, 1991
Source: Japan (JPN)
Launch site: TANEGASHIMA SPACE CENTER (TNSTA)
aabbcc
Your satellite tracking list
Your tracking list is empty




NASA's NSSDC Master Catalog

Two Line Element Set (TLE):
1 21668U 91060A   20144.42501267 -.00000236 +00000-0 +00000-0 0  9999
2 21668 013.3635 011.5445 0006790 059.3490 293.8833 00.98793530107411
Source of the keplerian elements: AFSPC